Year,Month,Day,Hour,Minute,Value (Times are PST for windspeed in km/hr)
2010,04,03,00,00,13.90
2010,04,03,00,01,19.60
2010,04,03,00,02,14.70
2010,04,03,00,03,16.40
2010,04,03,00,04,11.20
2010,04,03,00,05,11.70
2010,04,03,00,06,16.40
2010,04,03,00,07,14.70
2010,04,03,00,08,14.00
2010,04,03,00,09,10.20
2010,04,03,00,10,25.90
2010,04,03,00,11,14.40
2010,04,03,00,12,10.50
2010,04,03,00,13,10.20
2010,04,03,00,14,10.80
2010,04,03,00,15,10.80
2010,04,03,00,16,12.50
2010,04,03,00,17,15.50
2010,04,03,00,18,10.50
2010,04,03,00,19,6.10
2010,04,03,00,20,11.50
2010,04,03,00,21,8.20
2010,04,03,00,22,10.90
2010,04,03,00,23,14.80
2010,04,03,00,24,16.90
2010,04,03,00,25,10.50
2010,04,03,00,26,6.60
2010,04,03,00,27,11.50
2010,04,03,00,28,15.30
2010,04,03,00,29,8.30
2010,04,03,00,30,14.90
2010,04,03,00,31,15.10
2010,04,03,00,32,11.20
2010,04,03,00,33,12.90
2010,04,03,00,34,12.60
2010,04,03,00,35,14.30
2010,04,03,00,36,13.60
2010,04,03,00,37,13.40
2010,04,03,00,38,12.60
2010,04,03,00,39,10.90
2010,04,03,00,40,16.90
2010,04,03,00,41,19.00
2010,04,03,00,42,13.90
2010,04,03,00,43,9.00
2010,04,03,00,44,13.00
2010,04,03,00,45,9.80
2010,04,03,00,46,12.30
2010,04,03,00,47,10.40
2010,04,03,00,48,18.80
2010,04,03,00,49,14.90
2010,04,03,00,50,14.40
2010,04,03,00,51,13.00
2010,04,03,00,52,12.40
2010,04,03,00,53,14.00
2010,04,03,00,54,7.80
2010,04,03,00,55,11.00
2010,04,03,00,56,10.10
2010,04,03,00,57,4.70
2010,04,03,00,58,7.60
2010,04,03,00,59,7.40
2010,04,03,01,00,11.10
2010,04,03,01,01,9.30
2010,04,03,01,02,11.60
2010,04,03,01,03,6.30
2010,04,03,01,04,8.20
2010,04,03,01,05,7.60
2010,04,03,01,06,10.00
2010,04,03,01,07,6.70
2010,04,03,01,08,3.80
2010,04,03,01,09,7.10
2010,04,03,01,10,7.90
2010,04,03,01,11,11.90
2010,04,03,01,12,9.50
2010,04,03,01,13,15.00
2010,04,03,01,14,10.60
2010,04,03,01,15,7.40
2010,04,03,01,16,4.80
2010,04,03,01,17,18.50
2010,04,03,01,18,9.80
2010,04,03,01,19,10.80
2010,04,03,01,20,13.60
2010,04,03,01,21,7.20
2010,04,03,01,22,7.20
2010,04,03,01,23,6.80
2010,04,03,01,24,8.40
2010,04,03,01,25,12.40
2010,04,03,01,26,10.10
2010,04,03,01,27,11.20
2010,04,03,01,28,14.70
2010,04,03,01,29,11.30
2010,04,03,01,30,7.00
2010,04,03,01,31,8.50
2010,04,03,01,32,4.90
2010,04,03,01,33,6.50
2010,04,03,01,34,15.00
2010,04,03,01,35,13.30
2010,04,03,01,36,10.60
2010,04,03,01,37,5.80
2010,04,03,01,38,7.50
2010,04,03,01,39,6.40
2010,04,03,01,40,15.40
2010,04,03,01,41,9.30
2010,04,03,01,42,10.90
2010,04,03,01,43,6.30
2010,04,03,01,44,3.90
2010,04,03,01,45,10.20
2010,04,03,01,46,10.70
2010,04,03,01,47,7.60
2010,04,03,01,48,8.90
2010,04,03,01,49,8.10
2010,04,03,01,50,6.10
2010,04,03,01,51,7.80
2010,04,03,01,52,7.40
2010,04,03,01,53,9.80
2010,04,03,01,54,9.60
2010,04,03,01,55,10.40
2010,04,03,01,56,13.10
2010,04,03,01,57,7.50
2010,04,03,01,58,5.40
2010,04,03,01,59,8.80
2010,04,03,02,00,10.30
2010,04,03,02,01,15.60
2010,04,03,02,02,8.00
2010,04,03,02,03,4.40
2010,04,03,02,04,13.10
2010,04,03,02,05,16.80
2010,04,03,02,06,13.60
2010,04,03,02,07,13.50
2010,04,03,02,08,5.50
2010,04,03,02,09,5.30
2010,04,03,02,10,7.10
2010,04,03,02,11,6.50
2010,04,03,02,12,3.90
2010,04,03,02,13,7.70
2010,04,03,02,14,8.30
2010,04,03,02,15,25.70
2010,04,03,02,16,14.90
2010,04,03,02,17,21.80
2010,04,03,02,18,12.60
2010,04,03,02,19,9.30
2010,04,03,02,20,11.30
2010,04,03,02,21,17.60
2010,04,03,02,22,10.50
2010,04,03,02,23,12.60
2010,04,03,02,24,8.90
2010,04,03,02,25,11.30
2010,04,03,02,26,12.10
2010,04,03,02,27,11.30
2010,04,03,02,28,10.80
2010,04,03,02,29,8.40
2010,04,03,02,30,9.50
2010,04,03,02,31,2.70
2010,04,03,02,32,14.70
2010,04,03,02,33,8.60
2010,04,03,02,34,2.30
2010,04,03,02,35,7.80
2010,04,03,02,36,4.40
2010,04,03,02,37,8.60
2010,04,03,02,38,13.10
2010,04,03,02,39,10.40
2010,04,03,02,40,11.30
2010,04,03,02,41,9.90
2010,04,03,02,42,7.10
2010,04,03,02,43,18.10
2010,04,03,02,44,9.20
2010,04,03,02,45,15.90
2010,04,03,02,46,20.80
2010,04,03,02,47,15.90
2010,04,03,02,48,8.80
2010,04,03,02,49,14.20
2010,04,03,02,50,12.80
2010,04,03,02,51,8.90
2010,04,03,02,52,12.60
2010,04,03,02,53,11.70
2010,04,03,02,54,12.60
2010,04,03,02,55,10.50
2010,04,03,02,56,9.20
2010,04,03,02,57,6.30
2010,04,03,02,58,10.80
2010,04,03,02,59,16.70
2010,04,03,03,00,7.20
2010,04,03,03,01,18.40
2010,04,03,03,02,14.30
2010,04,03,03,03,6.90
2010,04,03,03,04,16.00
2010,04,03,03,05,9.30
2010,04,03,03,06,7.50
2010,04,03,03,07,9.20
2010,04,03,03,08,6.30
2010,04,03,03,09,5.60
2010,04,03,03,10,17.90
2010,04,03,03,11,17.90
2010,04,03,03,12,10.80
2010,04,03,03,13,3.60
2010,04,03,03,14,15.60
2010,04,03,03,15,16.10
2010,04,03,03,16,16.10
2010,04,03,03,17,16.10
2010,04,03,03,18,15.20
2010,04,03,03,19,15.40
2010,04,03,03,20,12.30
2010,04,03,03,21,9.20
2010,04,03,03,22,6.10
2010,04,03,03,23,4.60
2010,04,03,03,24,4.30
2010,04,03,03,25,3.20
2010,04,03,03,26,2.10
2010,04,03,03,27,4.70
2010,04,03,03,28,7.00
2010,04,03,03,29,5.60
2010,04,03,03,30,6.70
2010,04,03,03,31,8.70
2010,04,03,03,32,9.90
2010,04,03,03,33,13.40
2010,04,03,03,34,8.90
2010,04,03,03,35,6.20
2010,04,03,03,36,7.20
2010,04,03,03,37,7.30
2010,04,03,03,38,10.00
2010,04,03,03,39,11.70
2010,04,03,03,40,11.40
2010,04,03,03,41,6.70
2010,04,03,03,42,7.60
2010,04,03,03,43,14.70
2010,04,03,03,44,15.40
2010,04,03,03,45,17.10
2010,04,03,03,46,13.10
2010,04,03,03,47,14.50
2010,04,03,03,48,13.00
2010,04,03,03,49,10.20
2010,04,03,03,50,19.20
2010,04,03,03,51,14.80
2010,04,03,03,52,12.60
2010,04,03,03,53,12.20
2010,04,03,03,54,4.80
2010,04,03,03,55,7.70
2010,04,03,03,56,8.20
2010,04,03,03,57,3.10
2010,04,03,03,58,4.00
2010,04,03,03,59,4.50
2010,04,03,04,00,11.30
2010,04,03,04,01,5.40
2010,04,03,04,02,8.00
2010,04,03,04,03,10.70
2010,04,03,04,04,8.60
2010,04,03,04,05,7.30
2010,04,03,04,06,6.00
2010,04,03,04,07,3.10
2010,04,03,04,08,12.40
2010,04,03,04,09,5.50
2010,04,03,04,10,13.10
2010,04,03,04,11,8.20
2010,04,03,04,12,7.70
2010,04,03,04,13,8.00
2010,04,03,04,14,10.90
2010,04,03,04,15,8.70
2010,04,03,04,16,5.80
2010,04,03,04,17,3.50
2010,04,03,04,18,4.10
2010,04,03,04,19,2.10
2010,04,03,04,20,2.10
2010,04,03,04,21,8.50
2010,04,03,04,22,3.10
2010,04,03,04,23,4.30
2010,04,03,04,24,8.90
2010,04,03,04,25,22.50
2010,04,03,04,26,14.40
2010,04,03,04,27,17.70
2010,04,03,04,28,10.50
2010,04,03,04,29,15.00
2010,04,03,04,30,8.00
2010,04,03,04,31,5.20
2010,04,03,04,32,7.90
2010,04,03,04,33,4.70
2010,04,03,04,34,6.10
2010,04,03,04,35,11.50
2010,04,03,04,36,7.40
2010,04,03,04,37,8.50
2010,04,03,04,38,7.30
2010,04,03,04,39,7.70
2010,04,03,04,40,6.60
2010,04,03,04,41,10.50
2010,04,03,04,42,7.50
2010,04,03,04,43,8.70
2010,04,03,04,44,19.10
2010,04,03,04,45,8.20
2010,04,03,04,46,8.40
2010,04,03,04,47,10.00
2010,04,03,04,48,10.20
2010,04,03,04,49,9.30
2010,04,03,04,50,7.70
2010,04,03,04,51,6.20
2010,04,03,04,52,9.10
2010,04,03,04,53,7.10
2010,04,03,04,54,8.70
2010,04,03,04,55,13.30
2010,04,03,04,56,12.80
2010,04,03,04,57,12.50
2010,04,03,04,58,13.10
2010,04,03,04,59,6.80
2010,04,03,05,00,4.70
2010,04,03,05,01,11.50
2010,04,03,05,02,9.30
2010,04,03,05,03,12.60
2010,04,03,05,04,6.40
2010,04,03,05,17,5.10
2010,04,03,05,28,7.60
2010,04,03,05,33,11.30
2010,04,03,05,34,5.60
2010,04,03,05,35,9.20
2010,04,03,05,36,9.20
2010,04,03,05,37,3.80
2010,04,03,05,38,7.20
2010,04,03,05,39,4.30
2010,04,03,05,40,3.80
2010,04,03,05,41,5.40
2010,04,03,05,42,4.00
2010,04,03,05,43,4.00
2010,04,03,05,44,4.40
2010,04,03,05,45,3.60
2010,04,03,05,46,3.10
2010,04,03,05,47,8.30
2010,04,03,05,48,2.90
2010,04,03,05,49,3.70
2010,04,03,05,50,5.20
2010,04,03,05,51,3.70
2010,04,03,05,52,2.90
2010,04,03,05,53,7.80
2010,04,03,05,54,5.20
2010,04,03,05,55,7.30
2010,04,03,05,56,5.00
2010,04,03,05,57,6.00
2010,04,03,05,58,7.60
2010,04,03,05,59,8.40
2010,04,03,06,00,9.00
2010,04,03,06,01,10.30
2010,04,03,06,02,10.60
2010,04,03,06,03,11.50
2010,04,03,06,04,7.20
2010,04,03,06,05,5.50
2010,04,03,06,06,2.50
2010,04,03,06,07,2.20
2010,04,03,06,08,0.20
2010,04,03,06,09,2.40
2010,04,03,06,10,2.70
2010,04,03,06,11,9.90
2010,04,03,06,12,11.10
2010,04,03,06,13,3.80
2010,04,03,06,14,4.60
2010,04,03,06,15,6.60
2010,04,03,06,16,5.70
2010,04,03,06,17,11.30
2010,04,03,06,18,11.10
2010,04,03,06,19,16.50
2010,04,03,06,20,9.30
2010,04,03,06,21,2.30
2010,04,03,06,22,6.40
2010,04,03,06,23,7.00
2010,04,03,06,24,6.60
2010,04,03,06,25,8.60
2010,04,03,06,26,1.80
2010,04,03,06,27,6.00
2010,04,03,06,28,10.30
2010,04,03,06,29,11.70
2010,04,03,06,30,18.90
2010,04,03,06,31,13.40
2010,04,03,06,32,14.30
2010,04,03,06,33,14.20
2010,04,03,06,34,22.60
2010,04,03,06,35,5.80
2010,04,03,06,36,13.70
2010,04,03,06,37,10.00
2010,04,03,06,38,13.70
2010,04,03,06,39,9.20
2010,04,03,06,40,9.20
2010,04,03,06,41,14.90
2010,04,03,06,42,8.20
2010,04,03,06,43,6.20
2010,04,03,06,44,7.30
2010,04,03,06,45,10.00
2010,04,03,06,46,9.30
2010,04,03,06,47,14.60
2010,04,03,06,48,8.50
2010,04,03,06,49,5.20
2010,04,03,06,50,9.50
2010,04,03,06,51,13.80
2010,04,03,06,52,9.20
2010,04,03,06,53,9.50
2010,04,03,06,54,13.30
2010,04,03,06,55,13.00
2010,04,03,06,56,8.60
2010,04,03,06,57,12.00
2010,04,03,06,58,14.30
2010,04,03,06,59,11.70
2010,04,03,07,00,9.90
2010,04,03,07,01,4.90
2010,04,03,07,02,7.70
2010,04,03,07,03,8.70
2010,04,03,07,04,18.30
2010,04,03,07,05,6.10
2010,04,03,07,06,8.50
2010,04,03,07,07,10.20
2010,04,03,07,08,7.50
2010,04,03,07,09,8.40
2010,04,03,07,10,6.40
2010,04,03,07,11,4.30
2010,04,03,07,12,4.50
2010,04,03,07,13,6.70
2010,04,03,07,14,2.30
2010,04,03,07,15,6.50
2010,04,03,07,16,8.60
2010,04,03,07,17,8.60
2010,04,03,07,18,3.80
2010,04,03,07,19,4.70
2010,04,03,07,20,2.90
2010,04,03,07,21,8.20
2010,04,03,07,22,10.10
2010,04,03,07,23,6.90
2010,04,03,07,24,10.90
2010,04,03,07,25,6.60
2010,04,03,07,26,8.70
2010,04,03,07,27,4.00
2010,04,03,07,28,2.00
2010,04,03,07,29,2.10
2010,04,03,07,30,3.80
2010,04,03,07,31,4.70
2010,04,03,07,32,7.40
2010,04,03,07,33,2.30
2010,04,03,07,34,3.60
2010,04,03,07,35,6.30
2010,04,03,07,36,8.70
2010,04,03,07,37,5.80
2010,04,03,07,38,9.70
2010,04,03,07,39,5.30
2010,04,03,07,40,13.10
2010,04,03,07,41,6.30
2010,04,03,07,42,13.50
2010,04,03,07,43,12.60
2010,04,03,07,44,6.20
2010,04,03,07,45,7.90
2010,04,03,07,46,11.30
2010,04,03,07,47,10.90
2010,04,03,07,48,13.00
2010,04,03,07,49,10.10
2010,04,03,07,50,2.60
2010,04,03,07,51,7.00
2010,04,03,07,52,11.40
2010,04,03,07,53,5.10
2010,04,03,07,54,6.00
2010,04,03,07,55,7.00
2010,04,03,07,56,14.60
2010,04,03,07,57,18.90
2010,04,03,07,58,13.30
2010,04,03,07,59,14.80
2010,04,03,08,00,11.50
2010,04,03,08,01,17.40
2010,04,03,08,02,12.80
2010,04,03,08,03,6.10
2010,04,03,08,04,21.70
2010,04,03,08,05,16.30
2010,04,03,08,06,12.00
2010,04,03,08,07,5.80
2010,04,03,08,08,10.10
2010,04,03,08,09,5.40
2010,04,03,08,10,12.30
2010,04,03,08,11,5.20
2010,04,03,08,12,2.10
2010,04,03,08,13,9.00
2010,04,03,08,14,12.90
2010,04,03,08,15,9.50
2010,04,03,08,16,6.10
2010,04,03,08,17,8.80
2010,04,03,08,18,11.00
2010,04,03,08,19,10.00
2010,04,03,08,20,4.30
2010,04,03,08,21,3.20
2010,04,03,08,22,1.20
2010,04,03,08,23,2.70
2010,04,03,08,24,3.40
2010,04,03,08,25,5.30
2010,04,03,08,26,9.50
2010,04,03,08,27,3.60
2010,04,03,08,28,7.70
2010,04,03,08,29,6.40
2010,04,03,08,30,8.90
2010,04,03,08,31,3.80
2010,04,03,08,32,3.50
2010,04,03,08,33,8.30
2010,04,03,08,34,10.50
2010,04,03,08,35,5.30
2010,04,03,08,36,4.80
2010,04,03,08,37,9.30
2010,04,03,08,38,3.50
2010,04,03,08,39,5.70
2010,04,03,08,40,5.70
2010,04,03,08,41,4.10
2010,04,03,08,42,14.20
2010,04,03,08,43,9.70
2010,04,03,08,44,13.40
2010,04,03,08,45,15.50
2010,04,03,08,46,11.00
2010,04,03,08,47,12.00
2010,04,03,08,48,11.40
2010,04,03,08,49,3.80
2010,04,03,08,50,3.90
2010,04,03,08,51,10.50
2010,04,03,08,52,6.80
2010,04,03,08,53,13.00
2010,04,03,08,54,13.00
2010,04,03,08,55,12.60
2010,04,03,08,56,7.20
2010,04,03,08,57,10.90
2010,04,03,08,58,10.70
2010,04,03,08,59,4.60
2010,04,03,09,00,10.10
2010,04,03,09,01,10.90
2010,04,03,09,02,4.80
2010,04,03,09,03,3.80
2010,04,03,09,04,10.20
2010,04,03,09,05,7.00
2010,04,03,09,06,6.00
2010,04,03,09,07,7.20
2010,04,03,09,08,11.00
2010,04,03,09,09,8.00
2010,04,03,09,10,7.30
2010,04,03,09,11,7.10
2010,04,03,09,12,7.10
2010,04,03,09,13,11.70
2010,04,03,09,14,6.00
2010,04,03,09,15,7.20
2010,04,03,09,16,4.40
2010,04,03,09,17,3.20
2010,04,03,09,18,5.50
2010,04,03,09,19,10.50
2010,04,03,09,20,9.50
2010,04,03,09,21,12.60
2010,04,03,09,22,11.20
2010,04,03,09,23,10.50
2010,04,03,09,24,11.00
2010,04,03,09,25,6.60
2010,04,03,09,26,10.70
2010,04,03,09,27,9.90
2010,04,03,09,28,4.70
2010,04,03,09,29,7.60
2010,04,03,09,30,4.40
2010,04,03,09,31,9.20
2010,04,03,09,32,9.10
2010,04,03,09,33,9.70
2010,04,03,09,34,8.60
2010,04,03,09,35,7.20
2010,04,03,09,36,11.80
2010,04,03,09,37,7.10
2010,04,03,09,38,13.50
2010,04,03,09,39,6.70
2010,04,03,09,40,12.50
2010,04,03,09,41,17.80
2010,04,03,09,42,15.80
2010,04,03,09,43,9.10
2010,04,03,09,44,9.00
2010,04,03,09,45,12.50
2010,04,03,09,46,11.10
2010,04,03,09,47,13.40
2010,04,03,09,48,10.40
2010,04,03,09,49,7.30
2010,04,03,09,50,9.60
2010,04,03,09,51,6.80
2010,04,03,09,52,6.60
2010,04,03,09,53,4.40
2010,04,03,09,54,5.40
2010,04,03,09,55,8.90
2010,04,03,09,56,6.30
2010,04,03,09,57,6.30
2010,04,03,09,58,5.00
2010,04,03,09,59,7.80
2010,04,03,10,00,12.60
2010,04,03,10,01,2.30
2010,04,03,10,02,6.10
2010,04,03,10,03,3.60
2010,04,03,10,04,9.30
2010,04,03,10,05,12.20
2010,04,03,10,06,10.30
2010,04,03,10,07,5.10
2010,04,03,10,08,10.70
2010,04,03,10,09,9.80
2010,04,03,10,10,8.10
2010,04,03,10,11,10.80
2010,04,03,10,12,9.20
2010,04,03,10,13,10.50
2010,04,03,10,14,9.00
2010,04,03,10,15,10.10
2010,04,03,10,16,8.20
2010,04,03,10,17,4.50
2010,04,03,10,18,8.00
2010,04,03,10,19,8.60
2010,04,03,10,20,10.00
2010,04,03,10,21,5.40
2010,04,03,10,22,5.60
2010,04,03,10,23,14.10
2010,04,03,10,24,9.00
2010,04,03,10,25,6.10
2010,04,03,10,26,6.30
2010,04,03,10,27,7.70
2010,04,03,10,28,9.40
2010,04,03,10,29,8.00
2010,04,03,10,30,7.20
2010,04,03,10,31,12.10
2010,04,03,10,32,6.00
2010,04,03,10,33,6.90
2010,04,03,10,34,5.70
2010,04,03,10,35,3.70
2010,04,03,10,36,4.90
2010,04,03,10,37,2.30
2010,04,03,10,38,4.20
2010,04,03,10,39,4.00
2010,04,03,10,40,4.50
2010,04,03,10,41,0.10
2010,04,03,10,42,0.90
2010,04,03,10,43,7.20
2010,04,03,10,44,1.20
2010,04,03,10,45,0.00
2010,04,03,10,46,0.40
2010,04,03,10,47,4.20
2010,04,03,10,48,0.50
2010,04,03,10,49,1.50
2010,04,03,10,50,5.80
2010,04,03,10,51,1.80
2010,04,03,10,52,7.90
2010,04,03,10,53,6.20
2010,04,03,10,54,2.30
2010,04,03,10,55,3.90
2010,04,03,10,56,1.80
2010,04,03,10,57,1.20
2010,04,03,10,58,0.90
2010,04,03,10,59,2.30
2010,04,03,11,00,8.10
2010,04,03,11,01,4.80
2010,04,03,11,02,3.80
2010,04,03,11,03,0.50
2010,04,03,11,04,3.20
2010,04,03,11,05,0.50
2010,04,03,11,06,1.70
2010,04,03,11,07,0.50
2010,04,03,11,08,0.00
2010,04,03,11,09,0.90
2010,04,03,11,10,0.00
2010,04,03,11,11,0.60
2010,04,03,11,12,2.30
2010,04,03,11,13,0.20
2010,04,03,11,14,0.30
2010,04,03,11,15,1.70
2010,04,03,11,16,0.30
2010,04,03,11,17,0.10
2010,04,03,11,18,4.00
2010,04,03,11,19,0.40
2010,04,03,11,20,3.10
2010,04,03,11,21,1.20
2010,04,03,11,22,3.10
2010,04,03,11,23,0.10
2010,04,03,11,24,0.00
2010,04,03,11,25,0.00
2010,04,03,11,26,0.60
2010,04,03,11,27,1.30
2010,04,03,11,28,3.60
2010,04,03,11,29,0.90
2010,04,03,11,30,0.30
2010,04,03,11,31,0.60
2010,04,03,11,32,2.10
2010,04,03,11,33,3.00
2010,04,03,11,34,2.60
2010,04,03,11,35,1.80
2010,04,03,11,36,1.00
2010,04,03,11,37,0.00
2010,04,03,11,38,0.40
2010,04,03,11,39,2.20
2010,04,03,11,40,0.80
2010,04,03,11,41,0.10
2010,04,03,11,42,1.00
2010,04,03,11,43,0.30
2010,04,03,11,44,0.00
2010,04,03,11,45,0.00
2010,04,03,11,46,0.00
2010,04,03,11,47,0.40
2010,04,03,11,48,1.30
2010,04,03,11,49,0.20
2010,04,03,11,50,0.40
2010,04,03,11,51,1.60
2010,04,03,11,52,1.00
2010,04,03,11,53,0.00
2010,04,03,11,54,0.40
2010,04,03,11,55,3.40
2010,04,03,11,56,1.00
2010,04,03,11,57,0.40
2010,04,03,11,58,1.90
2010,04,03,11,59,3.30
2010,04,03,12,00,3.50
2010,04,03,12,01,3.60
2010,04,03,12,02,3.00
2010,04,03,12,03,1.00
2010,04,03,12,04,0.00
2010,04,03,12,05,0.10
2010,04,03,12,06,0.40
2010,04,03,12,07,1.20
2010,04,03,12,08,2.40
2010,04,03,12,09,1.20
2010,04,03,12,10,2.10
2010,04,03,12,11,0.10
2010,04,03,12,12,0.20
2010,04,03,12,13,2.40
2010,04,03,12,14,3.10
2010,04,03,12,15,3.70
2010,04,03,12,16,2.50
2010,04,03,12,17,0.40
2010,04,03,12,18,2.50
2010,04,03,12,19,1.50
2010,04,03,12,20,2.50
2010,04,03,12,21,1.20
2010,04,03,12,22,5.40
2010,04,03,12,23,0.90
2010,04,03,12,24,2.50
2010,04,03,12,25,3.50
2010,04,03,12,26,3.70
2010,04,03,12,27,2.30
2010,04,03,12,28,3.90
2010,04,03,12,29,6.50
2010,04,03,12,30,1.20
2010,04,03,12,31,4.40
2010,04,03,12,32,3.90
2010,04,03,12,33,4.60
2010,04,03,12,34,3.50
2010,04,03,12,35,5.10
2010,04,03,12,36,4.20
2010,04,03,12,37,5.10
2010,04,03,12,38,5.40
2010,04,03,12,39,2.90
2010,04,03,12,40,5.80
2010,04,03,12,41,2.00
2010,04,03,12,42,1.20
2010,04,03,12,43,4.20
2010,04,03,12,44,5.90
2010,04,03,12,45,6.40
2010,04,03,12,46,3.50
2010,04,03,12,47,1.20
2010,04,03,12,48,4.00
2010,04,03,12,49,0.90
2010,04,03,12,50,2.10
2010,04,03,12,51,1.20
2010,04,03,12,52,2.80
2010,04,03,12,53,2.50
2010,04,03,12,54,0.80
2010,04,03,12,55,0.40
2010,04,03,12,56,1.50
2010,04,03,12,57,3.50
2010,04,03,12,58,1.50
2010,04,03,12,59,0.40
2010,04,03,13,00,2.00
2010,04,03,13,01,1.60
2010,04,03,13,02,2.00
2010,04,03,13,03,0.60
2010,04,03,13,04,0.40
2010,04,03,13,05,1.70
2010,04,03,13,06,2.30
2010,04,03,13,07,3.50
2010,04,03,13,08,3.30
2010,04,03,13,09,3.40
2010,04,03,13,10,3.40
2010,04,03,13,11,1.50
2010,04,03,13,12,1.40
2010,04,03,13,13,1.90
2010,04,03,13,14,1.50
2010,04,03,13,15,2.40
2010,04,03,13,16,0.90
2010,04,03,13,17,5.50
2010,04,03,13,18,3.60
2010,04,03,13,19,4.00
2010,04,03,13,20,4.40
2010,04,03,13,21,5.30
2010,04,03,13,22,4.90
2010,04,03,13,23,0.90
2010,04,03,13,24,3.80
2010,04,03,13,25,1.00
2010,04,03,13,26,5.00
2010,04,03,13,27,8.70
2010,04,03,13,28,6.70
2010,04,03,13,29,5.10
2010,04,03,13,30,3.80
2010,04,03,13,31,3.50
2010,04,03,13,32,6.80
2010,04,03,13,33,5.60
2010,04,03,13,34,1.90
2010,04,03,13,35,6.20
2010,04,03,13,36,3.70
2010,04,03,13,37,6.00
2010,04,03,13,38,4.00
2010,04,03,13,39,4.60
2010,04,03,13,40,4.70
2010,04,03,13,41,2.10
2010,04,03,13,42,1.40
2010,04,03,13,43,1.30
2010,04,03,13,44,2.40
2010,04,03,13,45,3.10
2010,04,03,13,46,6.90
2010,04,03,13,47,7.50
2010,04,03,13,48,6.20
2010,04,03,13,49,3.80
2010,04,03,13,50,0.90
2010,04,03,13,51,3.50
2010,04,03,13,52,4.40
2010,04,03,13,53,3.70
2010,04,03,13,54,4.00
2010,04,03,13,55,2.30
2010,04,03,13,56,7.00
2010,04,03,13,57,3.10
2010,04,03,13,58,6.30
2010,04,03,13,59,2.40
2010,04,03,14,00,7.90
2010,04,03,14,01,4.50
2010,04,03,14,02,3.60
2010,04,03,14,03,3.20
2010,04,03,14,04,2.80
2010,04,03,14,05,5.40
2010,04,03,14,06,4.30
2010,04,03,14,07,5.70
2010,04,03,14,08,4.10
2010,04,03,14,09,2.00
2010,04,03,14,10,2.10
2010,04,03,14,11,6.40
2010,04,03,14,12,6.40
2010,04,03,14,13,5.40
2010,04,03,14,14,6.20
2010,04,03,14,15,6.10
2010,04,03,14,16,7.60
2010,04,03,14,17,7.60
2010,04,03,14,18,5.60
2010,04,03,14,19,6.00
2010,04,03,14,20,1.40
2010,04,03,14,21,4.70
2010,04,03,14,22,7.10
2010,04,03,14,23,6.40
2010,04,03,14,24,1.80
2010,04,03,14,25,3.10
2010,04,03,14,26,4.90
2010,04,03,14,27,0.70
2010,04,03,14,28,2.40
2010,04,03,14,29,6.30
2010,04,03,14,30,3.80
2010,04,03,14,31,5.50
2010,04,03,14,32,2.90
2010,04,03,14,33,7.70
2010,04,03,14,34,3.30
2010,04,03,14,35,1.60
2010,04,03,14,36,3.90
2010,04,03,14,37,4.40
2010,04,03,14,38,1.50
2010,04,03,14,39,0.40
2010,04,03,14,40,3.40
2010,04,03,14,41,1.20
2010,04,03,14,42,8.20
2010,04,03,14,43,7.10
2010,04,03,14,44,9.60
2010,04,03,14,45,5.10
2010,04,03,14,46,4.50
2010,04,03,14,47,6.90
2010,04,03,14,48,8.00
2010,04,03,14,49,9.50
2010,04,03,14,50,8.90
2010,04,03,14,51,2.00
2010,04,03,14,52,3.60
2010,04,03,14,53,9.70
2010,04,03,14,54,5.00
2010,04,03,14,55,10.10
2010,04,03,14,56,4.10
2010,04,03,14,57,5.30
2010,04,03,14,58,6.00
2010,04,03,14,59,4.70
2010,04,03,15,00,7.90
2010,04,03,15,01,3.60
2010,04,03,15,02,3.80
2010,04,03,15,03,5.40
2010,04,03,15,04,6.90
2010,04,03,15,05,11.20
2010,04,03,15,06,5.80
2010,04,03,15,07,8.00
2010,04,03,15,08,7.60
2010,04,03,15,09,7.80
2010,04,03,15,10,3.30
2010,04,03,15,11,2.80
2010,04,03,15,12,5.80
2010,04,03,15,13,5.60
2010,04,03,15,14,3.30
2010,04,03,15,15,4.60
2010,04,03,15,16,3.30
2010,04,03,15,17,8.50
2010,04,03,15,18,4.50
2010,04,03,15,19,3.60
2010,04,03,15,20,8.80
2010,04,03,15,21,7.20
2010,04,03,15,22,7.60
2010,04,03,15,23,4.70
2010,04,03,15,24,3.50
2010,04,03,15,25,4.30
2010,04,03,15,26,8.00
2010,04,03,15,27,7.90
2010,04,03,15,28,3.80
2010,04,03,15,29,6.50
2010,04,03,15,30,7.40
2010,04,03,15,31,8.20
2010,04,03,15,32,3.90
2010,04,03,15,33,5.50
2010,04,03,15,34,4.60
2010,04,03,15,35,6.50
2010,04,03,15,36,8.50
2010,04,03,15,37,6.80
2010,04,03,15,38,6.30
2010,04,03,15,39,6.00
2010,04,03,15,40,4.10
2010,04,03,15,41,6.20
2010,04,03,15,42,4.70
2010,04,03,15,43,3.90
2010,04,03,15,44,4.80
2010,04,03,15,45,4.70
2010,04,03,15,46,9.00
2010,04,03,15,47,6.60
2010,04,03,15,48,6.40
2010,04,03,15,49,7.60
2010,04,03,15,50,5.20
2010,04,03,15,51,5.30
2010,04,03,15,52,3.90
2010,04,03,15,53,2.10
2010,04,03,15,54,3.80
2010,04,03,15,55,5.10
2010,04,03,15,56,4.70
2010,04,03,15,57,4.20
2010,04,03,15,58,3.40
2010,04,03,15,59,2.70
2010,04,03,16,00,3.50
2010,04,03,16,01,4.10
2010,04,03,16,02,7.20
2010,04,03,16,03,5.70
2010,04,03,16,04,4.10
2010,04,03,16,05,2.60
2010,04,03,16,06,1.90
2010,04,03,16,07,4.30
2010,04,03,16,08,3.00
2010,04,03,16,09,1.20
2010,04,03,16,10,4.70
2010,04,03,16,11,1.40
2010,04,03,16,12,4.30
2010,04,03,16,13,1.70
2010,04,03,16,14,2.70
2010,04,03,16,15,2.90
2010,04,03,16,16,0.40
2010,04,03,16,17,4.10
2010,04,03,16,18,7.00
2010,04,03,16,19,6.60
2010,04,03,16,20,1.60
2010,04,03,16,21,2.80
2010,04,03,16,22,3.30
2010,04,03,16,23,1.80
2010,04,03,16,24,3.90
2010,04,03,16,25,1.50
2010,04,03,16,26,1.50
2010,04,03,16,27,5.50
2010,04,03,16,28,3.60
2010,04,03,16,29,5.90
2010,04,03,16,30,4.10
2010,04,03,16,31,2.10
2010,04,03,16,32,0.10
2010,04,03,16,33,1.70
2010,04,03,16,34,0.40
2010,04,03,16,35,0.90
2010,04,03,16,36,1.70
2010,04,03,16,37,2.10
2010,04,03,16,38,3.60
2010,04,03,16,39,3.10
2010,04,03,16,40,2.90
2010,04,03,16,41,2.70
2010,04,03,16,42,4.70
2010,04,03,16,43,2.30
2010,04,03,16,44,4.80
2010,04,03,16,45,6.30
2010,04,03,16,46,3.50
2010,04,03,16,47,4.10
2010,04,03,16,48,2.80
2010,04,03,16,49,7.30
2010,04,03,16,50,1.10
2010,04,03,16,51,2.90
2010,04,03,16,52,2.50
2010,04,03,16,53,1.30
2010,04,03,16,54,2.30
2010,04,03,16,55,8.00
2010,04,03,16,56,4.10
2010,04,03,16,57,3.60
2010,04,03,16,58,1.00
2010,04,03,16,59,1.20
2010,04,03,17,00,7.00
2010,04,03,17,01,3.90
2010,04,03,17,02,6.10
2010,04,03,17,03,4.60
2010,04,03,17,04,0.80
2010,04,03,17,05,0.80
2010,04,03,17,06,4.10
2010,04,03,17,07,5.40
2010,04,03,17,08,6.00
2010,04,03,17,09,7.20
2010,04,03,17,10,4.30
2010,04,03,17,11,2.20
2010,04,03,17,12,4.90
2010,04,03,17,13,2.10
2010,04,03,17,14,3.20
2010,04,03,17,15,2.90
2010,04,03,17,16,1.40
2010,04,03,17,17,1.20
2010,04,03,17,18,1.30
2010,04,03,17,19,1.40
2010,04,03,17,20,1.50
2010,04,03,17,21,4.20
2010,04,03,17,22,5.50
2010,04,03,17,23,2.00
2010,04,03,17,24,1.90
2010,04,03,17,25,3.00
2010,04,03,17,26,2.00
2010,04,03,17,27,1.20
2010,04,03,17,28,3.10
2010,04,03,17,29,1.80
2010,04,03,17,30,2.70
2010,04,03,17,31,0.90
2010,04,03,17,32,0.10
2010,04,03,17,33,2.50
2010,04,03,17,34,0.80
2010,04,03,17,35,0.50
2010,04,03,17,36,3.40
2010,04,03,17,37,1.70
2010,04,03,17,38,0.10
2010,04,03,17,39,0.80
2010,04,03,17,40,1.60
2010,04,03,17,41,0.90
2010,04,03,17,42,1.90
2010,04,03,17,43,1.00
2010,04,03,17,44,3.80
2010,04,03,17,45,4.80
2010,04,03,17,46,1.00
2010,04,03,17,47,5.50
2010,04,03,17,48,6.00
2010,04,03,17,49,4.30
2010,04,03,17,50,6.50
2010,04,03,17,51,3.80
2010,04,03,17,52,4.00
2010,04,03,17,53,3.30
2010,04,03,17,54,2.50
2010,04,03,17,55,0.20
2010,04,03,17,56,3.10
2010,04,03,17,57,2.20
2010,04,03,17,58,2.40
2010,04,03,17,59,5.90
2010,04,03,18,00,1.70
2010,04,03,18,01,0.30
2010,04,03,18,02,1.90
2010,04,03,18,03,0.50
2010,04,03,18,04,1.80
2010,04,03,18,05,0.20
2010,04,03,18,06,0.00
2010,04,03,18,07,1.40
2010,04,03,18,08,0.20
2010,04,03,18,09,0.10
2010,04,03,18,10,0.10
2010,04,03,18,11,0.00
2010,04,03,18,12,0.00
2010,04,03,18,13,0.30
2010,04,03,18,14,1.80
2010,04,03,18,15,0.50
2010,04,03,18,16,0.40
2010,04,03,18,17,0.90
2010,04,03,18,18,1.30
2010,04,03,18,19,0.30
2010,04,03,18,20,0.20
2010,04,03,18,21,0.00